2022�N�x�@��C������Ԃɂ�鑪�茋��,,,,,,,,,,,,,,,
,,,,,,,,,,,,,,,
�P�@����n�_,,,,,,,,,,,,,,,
�k���É��s���V�ہi�k���É��s���V�ې����c15�j,,,,,,,,,,,,,,,
,,,,,,,,,,,,,,,
�Q�@���Ԓl�i�m��l�j��2022�N10��4���`2022�N10��26��,,,,,,,,,,,,,,,
,,,,,,,,,,,,,,,
,�N,��,��,��,SO2,SPM,Ox,CO,NO,NO2,PM2.5,���x,���x,����,����
,,,,,ppm,mg/m3,ppm,ppm,ppm,ppm,��g/m3,��,%,�ő�,m/s
H04,2022,10,4,1,***,0.016,0.035,***,***,***,8,24.6,70.2,CALM,0.1
H04,2022,10,4,2,0.001,0.012,0.039,0.2,0,0.004,7,24.5,69.7,CALM,0.2
H04,2022,10,4,3,0.001,0.014,0.04,0.2,0,0.004,9,24.8,70.9,CALM,0.1
H04,2022,10,4,4,0.001,0.019,0.035,0.2,0,0.005,10,23.1,86.9,S,0.3
H04,2022,10,4,5,0.001,0.018,0.024,0.2,0,0.01,11,23.4,85.2,CALM,0
H04,2022,10,4,6,0.001,0.019,0.017,0.2,0.001,0.015,9,22.4,83.4,CALM,0.1
H04,2022,10,4,7,0.001,0.021,0.013,0.2,0.002,0.017,11,23.3,78.7,CALM,0
H04,2022,10,4,8,0.001,0.019,0.012,0.3,0.005,0.018,12,23.8,75.8,CALM,0.2
H04,2022,10,4,9,0.001,0.02,0.015,0.3,0.006,0.017,12,24.8,71.7,SSE,0.3
H04,2022,10,4,10,0.001,0.02,0.028,0.3,0.005,0.015,9,26.9,65,SW,0.5
H04,2022,10,4,11,0.001,0.018,0.042,0.2,0.001,0.01,9,27.5,58,SSW,0.8
H04,2022,10,4,12,0.002,0.019,0.047,0.3,0.001,0.01,11,27.9,55.6,ESE,0.7
H04,2022,10,4,13,0.002,0.017,0.049,0.2,0.001,0.008,9,28.3,54.2,SE,0.9
H04,2022,10,4,14,0.002,0.018,0.047,0.2,0.002,0.009,7,28.7,54.9,SE,0.9
H04,2022,10,4,15,0.002,0.014,0.049,0.3,0.001,0.008,7,28.8,53.6,SE,0.6
H04,2022,10,4,16,0.002,0.018,0.047,0.2,0.001,0.008,10,28.4,59.1,ESE,0.7
H04,2022,10,4,17,0.003,0.02,0.041,0.3,0.001,0.014,10,28,61.2,S,0.8
H04,2022,10,4,18,0.002,0.018,0.04,0.2,0.001,0.012,8,27.4,62.5,SSW,0.8
H04,2022,10,4,19,0.001,0.02,0.038,0.2,0,0.011,9,26.8,69.3,SW,0.8
H04,2022,10,4,20,0.001,0.017,0.037,0.2,0,0.011,8,26.4,72.3,SW,0.8
H04,2022,10,4,21,0.001,0.019,0.033,0.2,0,0.01,8,26.3,73.8,SW,0.4
H04,2022,10,4,22,0.001,0.019,0.03,0.2,0,0.01,8,25.8,75.3,SSW,0.5
H04,2022,10,4,23,0.001,0.02,0.03,0.2,0,0.008,8,25.7,76.5,SW,0.6
H04,2022,10,4,24,0.001,0.02,0.029,0.2,0,0.007,7,25.7,76.1,SSW,0.3
H04,2022,10,5,1,0.001,0.022,0.026,0.2,0,0.008,9,25.4,79.8,CALM,0.2
H04,2022,10,5,2,0,0.027,0.013,0.3,0.001,0.014,12,23.7,97.7,CALM,0
H04,2022,10,5,3,0.001,0.019,0.017,0.2,0,0.008,8,23.3,98.4,CALM,0.1
H04,2022,10,5,4,0.001,0.014,0.019,0.2,0,0.008,5,23.3,94.8,CALM,0.2
H04,2022,10,5,5,0.001,0.007,0.019,0.2,0,0.006,2,22.2,90,SSE,0.3
H04,2022,10,5,6,0.001,0.002,0.018,0.2,0,0.006,0,21.6,86.3,CALM,0.2
H04,2022,10,5,7,0.001,0.001,0.016,0.2,0.001,0.008,-1,21.8,80.5,SSE,0.4
H04,2022,10,5,8,0.001,0.001,0.017,0.2,0.002,0.007,-1,22.1,75.8,SE,0.4
H04,2022,10,5,9,0.001,0.002,0.019,0.2,0.003,0.007,2,23,69.2,SSE,0.5
H04,2022,10,5,10,0.001,0.008,0.023,0.2,0.002,0.005,0,22.8,66.9,SSE,0.5
H04,2022,10,5,11,0.001,0.006,0.024,0.2,0.002,0.005,2,23.6,62.4,SSE,0.6
H04,2022,10,5,12,0.001,0.007,0.027,0.2,0.004,0.005,2,25.1,54.7,SE,0.4
H04,2022,10,5,13,0.001,0.007,0.027,0.2,0.002,0.005,2,23,61.1,SSE,0.8
H04,2022,10,5,14,0.001,0.009,0.026,0.2,0.001,0.005,4,22.2,62.3,S,0.9
H04,2022,10,5,15,0.001,0.009,0.026,0.2,0.001,0.006,2,22.7,61.3,SSE,0.6
H04,2022,10,5,16,0.001,0.006,0.025,0.2,0.001,0.006,3,22.7,56.3,SSW,0.5
H04,2022,10,5,17,0.001,0.006,0.023,0.2,0.001,0.008,4,21.3,59,SSE,0.5
H04,2022,10,5,18,0.001,0.006,0.02,0.2,0.002,0.011,2,20.9,58.2,CALM,0.2
H04,2022,10,5,19,0.001,0.007,0.017,0.2,0.001,0.014,3,20.9,52.6,CALM,0.2
H04,2022,10,5,20,0,0.007,0.019,0.2,0.001,0.012,3,20.4,54.5,S,0.4
H04,2022,10,5,21,0,0.005,0.022,0.2,0,0.008,3,20,55.9,CALM,0.2
H04,2022,10,5,22,0.001,0.005,0.02,0.2,0,0.008,4,18.9,58.7,CALM,0.1
H04,2022,10,5,23,0.001,0.005,0.019,0.2,0,0.009,3,18.8,60.4,CALM,0.1
H04,2022,10,5,24,0.001,0.005,0.019,0.2,0,0.008,2,17.7,64.3,CALM,0
H04,2022,10,6,1,0.001,0.005,0.016,0.2,0,0.009,3,17.3,66,CALM,0.1
H04,2022,10,6,2,0,0.007,0.014,0.2,0.001,0.012,4,18,62.4,CALM,0
H04,2022,10,6,3,0,0.007,0.01,0.2,0,0.015,6,17.1,63.5,SSE,0.3
H04,2022,10,6,4,0.001,0.005,0.016,0.2,0,0.011,2,17.3,59.8,CALM,0.1
H04,2022,10,6,5,0.001,0.007,0.014,0.2,0,0.012,5,18,60.4,CALM,0
H04,2022,10,6,6,0.001,0.007,0.009,0.2,0.001,0.017,4,17.6,57,CALM,0.1
H04,2022,10,6,7,0.001,0.006,0.009,0.2,0.002,0.016,3,17.6,59.9,CALM,0
H04,2022,10,6,8,0.001,0.005,0.008,0.2,0.006,0.019,3,18.3,52.9,CALM,0.1
H04,2022,10,6,9,0.001,0.004,0.011,0.2,0.005,0.018,3,18.9,50.4,CALM,0.2
H04,2022,10,6,10,0.001,0.007,0.013,0.3,0.005,0.016,4,18.9,49.2,CALM,0.2
H04,2022,10,6,11,0.001,0.004,0.018,0.2,0.004,0.013,2,19.2,47.4,CALM,0.2
H04,2022,10,6,12,0.001,0.005,0.02,0.2,0.003,0.012,4,19.5,47.6,CALM,0.2
H04,2022,10,6,13,0.001,0.008,0.021,0.2,0.003,0.012,4,19.8,46.9,SSE,0.3
H04,2022,10,6,14,0.001,0.008,0.022,0.2,0.002,0.012,4,20.1,50.4,CALM,0.1
H04,2022,10,6,15,0.001,0.007,0.023,0.2,0.002,0.01,3,20,49.1,CALM,0.2
H04,2022,10,6,16,0.001,0.005,0.026,0.2,0.002,0.008,4,20.1,50.7,CALM,0.2
H04,2022,10,6,17,0.001,0.005,0.024,0.2,0.002,0.01,2,20.6,51.9,CALM,0.1
H04,2022,10,6,18,0.001,0.007,0.021,0.2,0.003,0.014,4,19.5,55.6,CALM,0
H04,2022,10,6,19,0,0.008,0.017,0.3,0.001,0.016,5,19.5,55.8,CALM,0
H04,2022,10,6,20,0.001,0.008,0.011,0.3,0.002,0.022,6,19.2,57.9,CALM,0
H04,2022,10,6,21,0.001,0.01,0.007,0.3,0.003,0.025,6,18.9,60.6,CALM,0
H04,2022,10,6,22,0.001,0.01,0.004,0.4,0.004,0.024,6,17.6,67.9,CALM,0
H04,2022,10,6,23,0.001,0.012,0.003,0.4,0.012,0.025,7,17.9,70.7,CALM,0.1
H04,2022,10,6,24,0.001,0.01,0.003,0.3,0.01,0.02,7,17.2,72.9,CALM,0
H04,2022,10,7,1,0.001,0.009,0.004,0.3,0.001,0.014,8,17.6,74,CALM,0
H04,2022,10,7,2,0.002,0.011,0.003,0.3,0.002,0.014,5,17.1,76.6,CALM,0.2
H04,2022,10,7,3,0.004,0.013,0.002,0.2,0.009,0.013,8,16.8,80.7,CALM,0.2
H04,2022,10,7,4,0.003,0.008,0.002,0.2,0.002,0.012,6,16.2,87.8,CALM,0.2
H04,2022,10,7,5,0.001,0.006,0.003,0.2,0.001,0.012,4,15.5,93.2,CALM,0.1
H04,2022,10,7,6,0.001,0.007,0.005,0.2,0.001,0.01,5,15.3,95.9,CALM,0
H04,2022,10,7,7,0.001,0.005,0.005,0.2,0.003,0.01,5,15.6,97.1,CALM,0
H04,2022,10,7,8,0.001,0.007,0.003,0.3,0.012,0.012,5,15.9,95.8,CALM,0
H04,2022,10,7,9,0.001,0.006,0.004,0.3,0.013,0.013,4,15.6,95.1,CALM,0
H04,2022,10,7,10,0.001,0.005,0.008,0.2,0.011,0.013,1,15.3,95.4,CALM,0
H04,2022,10,7,11,0.001,0.003,0.017,0.2,0.002,0.008,3,15.8,97,CALM,0.1
H04,2022,10,7,12,0,0.003,0.017,0.2,0.004,0.012,3,16.2,96.9,CALM,0
H04,2022,10,7,13,0.001,0.004,0.018,0.2,0.003,0.013,2,16,94.3,CALM,0
H04,2022,10,7,14,0,0.003,0.016,0.2,0.004,0.014,2,16.5,96.4,CALM,0
H04,2022,10,7,15,0.001,0.003,0.017,0.3,0.004,0.017,3,16.6,96.5,CALM,0
H04,2022,10,7,16,0.001,0.004,0.015,0.3,0.003,0.016,0,16.8,95.4,CALM,0
H04,2022,10,7,17,0.001,0.004,0.014,0.3,0.003,0.016,2,16.7,94.8,CALM,0.1
H04,2022,10,7,18,0.001,0.004,0.015,0.3,0.003,0.015,3,16.4,95.5,CALM,0.1
H04,2022,10,7,19,0.001,0.003,0.014,0.3,0.002,0.016,1,16.6,94.6,CALM,0
H04,2022,10,7,20,0.001,0.002,0.014,0.3,0.001,0.015,2,16.3,94.3,CALM,0
H04,2022,10,7,21,0.001,0.004,0.008,0.3,0.002,0.02,3,16.7,94.5,CALM,0
H04,2022,10,7,22,0.001,0.005,0.007,0.3,0.003,0.019,4,16.4,92.8,CALM,0
H04,2022,10,7,23,0.001,0.005,0.007,0.3,0.001,0.018,3,16.2,93,CALM,0
H04,2022,10,7,24,0.001,0.005,0.005,0.3,0.001,0.02,4,16.4,93.5,CALM,0
H04,2022,10,8,1,0.001,0.006,0.003,0.4,0.004,0.021,4,16.2,93.2,CALM,0
H04,2022,10,8,2,0.001,0.007,0.004,0.3,0.005,0.017,4,16.2,93.3,CALM,0
H04,2022,10,8,3,0.001,0.011,0.005,0.3,0.002,0.014,7,16.2,91.7,CALM,0.1
H04,2022,10,8,4,0.001,0.008,0.007,0.2,0.001,0.012,5,16.5,90.3,CALM,0
H04,2022,10,8,5,0.001,0.007,0.006,0.2,0.002,0.012,6,16.6,90.1,CALM,0
H04,2022,10,8,6,0.001,0.007,0.007,0.2,0.002,0.011,4,16.7,88.2,CALM,0
H04,2022,10,8,7,0.001,0.003,0.01,0.2,0.002,0.011,2,17.1,83.9,CALM,0.1
H04,2022,10,8,8,0.001,0.005,0.021,0.2,0.002,0.01,1,18.8,70.3,SSW,0.5
H04,2022,10,8,9,0.001,0.003,0.032,0.2,0.002,0.005,0,20.9,59.8,S,0.3
H04,2022,10,8,10,0,0.001,0.034,0.2,0.001,0.003,1,21.3,53.6,S,0.4
H04,2022,10,8,11,0.001,0,0.035,0.1,0,0.002,0,22.3,48.3,S,0.4
H04,2022,10,8,12,0.001,0.001,0.035,0.1,0.001,0.002,-1,24,42.8,S,0.4
H04,2022,10,8,13,0.001,0.002,0.036,0.1,0,0.002,1,22.5,49.1,S,0.4
H04,2022,10,8,14,0.001,0.002,0.035,0.1,0.001,0.003,1,22.2,49.9,SSE,0.5
H04,2022,10,8,15,0.001,0.006,0.036,0.1,0,0.003,2,22.4,50.4,SSE,0.5
H04,2022,10,8,16,0,0.007,0.035,0.1,0,0.003,1,21.5,53.3,SSE,0.5
H04,2022,10,8,17,0,0.006,0.033,0.1,0,0.004,2,20.7,55.5,SSE,0.6
H04,2022,10,8,18,0,0.006,0.031,0.2,0,0.004,2,20.1,57.3,SSE,0.4
H04,2022,10,8,19,0,0.006,0.03,0.2,0,0.005,4,19.8,59,S,0.4
H04,2022,10,8,20,0,0.005,0.03,0.1,0,0.004,4,19.4,61,S,0.3
H04,2022,10,8,21,0,0.007,0.028,0.2,0,0.004,2,18.5,64,CALM,0.1
H04,2022,10,8,22,0,0.005,0.027,0.2,0,0.005,3,18.3,65.2,CALM,0
H04,2022,10,8,23,0.001,0.006,0.022,0.2,0,0.007,6,18.2,66.9,CALM,0.1
H04,2022,10,8,24,0.001,0.008,0.02,0.2,0,0.008,5,17.6,69.5,CALM,0.1
H04,2022,10,9,1,0,0.007,0.014,0.2,0,0.011,3,17.3,70.5,CALM,0
H04,2022,10,9,2,0.001,0.005,0.008,0.2,0.001,0.016,4,16.7,72.9,CALM,0
H04,2022,10,9,3,0.001,0.004,0.01,0.2,0,0.012,4,17,71,CALM,0
H04,2022,10,9,4,0,0.004,0.015,0.2,0,0.006,3,16.8,74.6,CALM,0
H04,2022,10,9,5,0,0.006,0.014,0.1,0,0.006,2,16.6,73.6,CALM,0
H04,2022,10,9,6,0.001,0.004,0.013,0.1,0,0.005,2,16.2,74.4,CALM,0
H04,2022,10,9,7,0.001,0.005,0.009,0.2,0.002,0.008,4,16.8,75.2,CALM,0.2
H04,2022,10,9,8,0.002,0.008,0.008,0.2,0.004,0.007,6,18,70.9,CALM,0.1
H04,2022,10,9,9,0.003,0.006,0.012,0.2,0.002,0.005,2,19.5,63.8,CALM,0
H04,2022,10,9,10,0.001,0.005,0.016,0.2,0.002,0.004,2,19.5,62.3,CALM,0.2
H04,2022,10,9,11,0.001,0.004,0.018,0.2,0.001,0.005,3,20,61.6,CALM,0
H04,2022,10,9,12,0.001,0.005,0.019,0.2,0.001,0.005,4,20.4,60.7,CALM,0.2
H04,2022,10,9,13,0.003,0.008,0.021,0.4,0.002,0.009,7,20.4,62.5,SSE,0.3
H04,2022,10,9,14,0.002,0.009,0.024,0.4,0.001,0.007,6,19.4,77.5,CALM,0
H04,2022,10,9,15,0.001,0.011,0.022,0.3,0.001,0.006,8,18.3,89.7,CALM,0.1
H04,2022,10,9,16,0.001,0.009,0.017,0.3,0.001,0.009,6,17.6,94.7,CALM,0
H04,2022,10,9,17,0,0.007,0.013,0.2,0.001,0.011,6,17.4,96.5,CALM,0
H04,2022,10,9,18,0.001,0.006,0.014,0.3,0.002,0.012,5,17,95.2,CALM,0.1
H04,2022,10,9,19,0.001,0.006,0.019,0.2,0.001,0.008,3,16.8,94.7,CALM,0
H04,2022,10,9,20,0,0.005,0.017,0.2,0,0.009,4,16.7,96.7,CALM,0.1
H04,2022,10,9,21,0.001,0.003,0.017,0.2,0,0.007,5,16.8,98.4,CALM,0
H04,2022,10,9,22,0,0.005,0.012,0.2,0,0.01,3,16.8,98.8,CALM,0
H04,2022,10,9,23,0,0.007,0.011,0.2,0,0.009,5,16.8,99,CALM,0
H04,2022,10,9,24,0,0.003,0.015,0.2,0,0.007,2,16.4,98.2,CALM,0
H04,2022,10,10,1,0,0.006,0.015,0.2,0,0.007,3,17.1,97.9,CALM,0
H04,2022,10,10,2,0,0.006,0.01,0.2,0,0.01,4,17,97.6,CALM,0
H04,2022,10,10,3,0.001,0.003,0.015,0.2,0,0.007,4,17,96.8,CALM,0
H04,2022,10,10,4,0.002,0.003,0.017,0.2,0,0.007,2,17.1,96.3,CALM,0
H04,2022,10,10,5,0.001,0.004,0.019,0.2,0,0.006,3,16.8,96.3,CALM,0.1
H04,2022,10,10,6,0.001,0.003,0.016,0.2,0,0.007,2,16.8,97.7,CALM,0.1
H04,2022,10,10,7,0.001,0.002,0.017,0.2,0,0.007,2,17,97.8,CALM,0
H04,2022,10,10,8,0,0.002,0.017,0.2,0.001,0.006,0,17.1,97.2,CALM,0
H04,2022,10,10,9,0,0.003,0.013,0.2,0.001,0.01,3,17.4,97,CALM,0.2
H04,2022,10,10,10,0,0.003,0.013,0.3,0.003,0.012,4,18.3,98.3,CALM,0
H04,2022,10,10,11,0.001,0.007,0.018,0.3,0.006,0.011,1,20.7,89.4,CALM,0.1
H04,2022,10,10,12,0.001,0.003,0.025,0.2,0.004,0.008,2,24.8,63.2,S,0.4
H04,2022,10,10,13,0.001,0.01,0.033,0.2,0.003,0.007,2,25.5,63.4,SSW,0.4
H04,2022,10,10,14,0.001,0.004,0.041,0.2,0.001,0.006,3,25.2,68,CALM,0
H04,2022,10,10,15,0.001,0.005,0.039,0.2,0,0.004,4,24.2,71.7,SSE,0.5
H04,2022,10,10,16,0.001,0,0.032,0.2,0,0.004,1,21.6,74.1,SSE,0.7
H04,2022,10,10,17,0.001,0,0.032,0.2,0,0.004,2,21,73.2,SSE,0.3
H04,2022,10,10,18,0.001,0.001,0.031,0.2,0,0.005,2,19.8,76.8,SE,0.3
H04,2022,10,10,19,0.001,0.002,0.032,0.2,0.001,0.005,2,19.4,74.8,SSE,0.4
H04,2022,10,10,20,0.001,0.006,0.032,0.2,0,0.005,1,18.9,75,CALM,0.2
H04,2022,10,10,21,0.001,0.004,0.031,0.2,0,0.004,2,18.9,74.8,CALM,0.2
H04,2022,10,10,22,0.001,0.004,0.028,0.2,0,0.006,1,18.9,73.5,CALM,0.1
H04,2022,10,10,23,0.001,0.005,0.028,0.2,0,0.006,3,18.3,70.8,CALM,0.1
H04,2022,10,10,24,0,0.01,0.028,0.2,0,0.006,6,18,70.1,CALM,0.2
H04,2022,10,11,1,***,0.01,0.028,***,***,***,5,17.9,71.9,CALM,0.1
H04,2022,10,11,2,0.001,0.011,0.026,0.2,0,0.007,8,17.7,72.4,CALM,0.2
H04,2022,10,11,3,0.001,0.01,0.025,0.2,0,0.006,7,17.6,73,CALM,0
H04,2022,10,11,4,0.001,0.008,0.024,0.2,0,0.006,5,17,76,CALM,0
H04,2022,10,11,5,0.001,0.009,0.017,0.2,0.001,0.011,6,16,78.1,CALM,0.1
H04,2022,10,11,6,0.001,0.015,0.019,0.2,0,0.011,5,16,69.6,CALM,0.2
H04,2022,10,11,7,0.001,0.008,0.024,0.2,0.001,0.012,5,16.8,62.7,CALM,0
H04,2022,10,11,8,0.001,0.009,0.025,0.2,0.002,0.011,3,17.9,53.8,CALM,0.1
H04,2022,10,11,9,0.001,0.008,0.033,0.2,0.002,0.006,4,19.1,48.4,SSE,0.4
H04,2022,10,11,10,0.001,0.004,0.039,0.2,0.001,0.003,3,20.5,43.3,S,0.4
H04,2022,10,11,11,0.001,0.004,0.04,0.2,0.001,0.003,5,21.3,43.2,SSE,0.6
H04,2022,10,11,12,0.001,0.007,0.04,0.2,0.001,0.004,2,23.8,31.4,SSE,0.4
H04,2022,10,11,13,0.001,0.011,0.041,0.2,0.001,0.004,3,23.9,34,SSE,0.3
H04,2022,10,11,14,0,0.004,0.041,0.2,0.001,0.004,3,23.9,36,S,0.5
H04,2022,10,11,15,0,0.004,0.04,0.2,0.001,0.003,6,22.8,39,S,0.9
H04,2022,10,11,16,0.001,0.003,0.04,0.2,0.001,0.003,3,21.4,47,SSE,0.9
H04,2022,10,11,17,0,0.006,0.036,0.2,0.002,0.005,5,20.2,51.1,SSE,0.8
H04,2022,10,11,18,0,0.005,0.036,0.2,0.001,0.005,3,19.5,50.8,SSE,0.6
H04,2022,10,11,19,0,0.007,0.032,0.2,0.001,0.007,5,18.9,56,S,0.5
H04,2022,10,11,20,0,0.007,0.032,0.2,0.001,0.006,4,18.9,56.4,S,0.4
H04,2022,10,11,21,0,0.005,0.033,0.2,0,0.004,1,18.5,57.6,CALM,0.1
H04,2022,10,11,22,0.001,0.005,0.03,0.2,0,0.005,4,18,58.5,CALM,0.1
H04,2022,10,11,23,0.001,0.006,0.027,0.2,0,0.007,2,18,59.4,CALM,0
H04,2022,10,11,24,0.001,0.007,0.025,0.2,0,0.008,0,17.9,60.2,CALM,0
H04,2022,10,12,1,0,0.005,0.022,0.2,0,0.009,5,17.4,63,CALM,0.1
H04,2022,10,12,2,0,0.004,0.021,0.2,0,0.009,3,17.7,65.5,CALM,0
H04,2022,10,12,3,0,0.006,0.019,0.2,0,0.01,3,17,67.5,CALM,0.1
H04,2022,10,12,4,0,0.005,0.019,0.2,0,0.01,4,17.3,67.3,CALM,0
H04,2022,10,12,5,0.001,0.008,0.015,0.2,0,0.014,5,16.7,68.9,CALM,0.1
H04,2022,10,12,6,0.001,0.008,0.01,0.2,0.001,0.017,3,16.8,69,CALM,0
H04,2022,10,12,7,0,0.007,0.008,0.2,0.004,0.02,4,16.7,70.2,CALM,0.1
H04,2022,10,12,8,0.001,0.008,0.01,0.2,0.005,0.018,3,18.3,62.1,CALM,0
H04,2022,10,12,9,0,0.004,0.019,0.2,0.005,0.012,1,20.4,52.5,S,0.3
H04,2022,10,12,10,0.001,0.005,0.027,0.2,0.004,0.006,3,22.1,47.5,CALM,0.2
H04,2022,10,12,11,0.001,0.004,0.031,0.2,0.002,0.005,3,23.1,43,CALM,0.2
H04,2022,10,12,12,0.001,0.005,0.034,0.2,0.001,0.004,5,25.1,37.8,CALM,0.1
H04,2022,10,12,13,0.001,0.008,0.036,0.2,0.001,0.004,1,24.3,42.2,SSE,0.4
H04,2022,10,12,14,0.001,0.005,0.033,0.2,0.002,0.005,5,24.6,44.1,SSE,0.3
H04,2022,10,12,15,0.001,0.005,0.029,0.2,0.001,0.007,6,22.8,50.4,SSE,0.5
H04,2022,10,12,16,0.001,0.008,0.025,0.2,0.001,0.007,5,22,50.5,SSE,0.4
H04,2022,10,12,17,0.001,0.008,0.023,0.2,0.001,0.009,6,21.6,52.6,CALM,0.2
H04,2022,10,12,18,0.001,0.006,0.02,0.2,0.004,0.013,4,21,56.1,CALM,0.2
H04,2022,10,12,19,0.001,0.008,0.019,0.2,0.001,0.012,7,20.3,60.1,CALM,0.1
H04,2022,10,12,20,0.001,0.009,0.016,0.2,0.002,0.013,7,19.7,63.5,CALM,0.1
H04,2022,10,12,21,0.001,0.011,0.016,0.2,0.001,0.012,7,19.4,65,CALM,0
H04,2022,10,12,22,0,0.008,0.012,0.2,0,0.014,7,19.2,68.1,CALM,0.1
H04,2022,10,12,23,0.001,0.01,0.009,0.2,0.001,0.014,6,18.9,67.8,CALM,0
H04,2022,10,12,24,0.001,0.008,0.01,0.2,0,0.013,7,18.6,70.4,CALM,0.1
H04,2022,10,13,1,0,0.008,0.008,0.2,0,0.013,6,18.2,71.9,CALM,0.1
H04,2022,10,13,2,0,0.008,0.009,0.2,0,0.012,6,18.2,72,CALM,0
H04,2022,10,13,3,0,0.008,0.01,0.2,0,0.009,5,17.6,75.2,CALM,0.1
H04,2022,10,13,4,0,0.008,0.007,0.2,0.001,0.011,6,17.7,74.7,CALM,0
H04,2022,10,13,5,0,0.008,0.006,0.2,0.001,0.011,6,17.3,75.9,CALM,0
H04,2022,10,13,6,0.001,0.009,0.005,0.2,0.002,0.014,6,17.6,74.9,CALM,0
H04,2022,10,13,7,0.001,0.01,0.005,0.2,0.006,0.016,7,17.4,74.5,CALM,0
H04,2022,10,13,8,0.001,0.01,0.006,0.2,0.009,0.015,8,18.3,70.6,CALM,0.1
H04,2022,10,13,9,0.001,0.01,0.008,0.3,0.01,0.015,7,18.6,69.2,CALM,0.2
H04,2022,10,13,10,0.001,0.012,0.009,0.3,0.013,0.017,11,20.1,63.8,CALM,0.1
H04,2022,10,13,11,0.001,0.013,0.015,0.3,0.01,0.016,9,21,60,SSE,0.6
H04,2022,10,13,12,0.002,0.013,0.022,0.3,0.005,0.015,9,21.5,59.9,ESE,0.6
H04,2022,10,13,13,0.002,0.012,0.026,0.4,0.002,0.012,10,22,57.5,CALM,0
H04,2022,10,13,14,0.001,0.013,0.024,0.3,0.002,0.015,11,21.7,58.9,CALM,0
H04,2022,10,13,15,0.001,0.015,0.025,0.3,0.002,0.015,14,22.1,60,CALM,0
H04,2022,10,13,16,0.001,0.018,0.028,0.3,0.002,0.017,13,22.1,61.1,CALM,0
H04,2022,10,13,17,0.001,0.017,0.023,0.3,0.002,0.019,12,21.9,63,CALM,0.1
H04,2022,10,13,18,0.001,0.015,0.018,0.3,0.002,0.02,11,21.5,63.9,CALM,0
H04,2022,10,13,19,0.001,0.019,0.009,0.4,0.002,0.027,13,21,67.4,CALM,0
H04,2022,10,13,20,0.001,0.02,0.005,0.5,0.006,0.03,15,20,71.3,CALM,0
H04,2022,10,13,21,0.001,0.024,0.006,0.5,0.007,0.029,15,19.2,73.3,CALM,0
H04,2022,10,13,22,0.001,0.024,0.005,0.4,0.009,0.03,18,18.6,78.9,CALM,0
H04,2022,10,13,23,0.001,0.023,0.005,0.4,0.007,0.024,16,18.6,81.7,CALM,0
H04,2022,10,13,24,0.001,0.018,0.004,0.4,0.012,0.016,15,17.4,84.3,CALM,0
H04,2022,10,14,1,0.001,0.017,0.004,0.3,0.013,0.014,13,17.1,83.5,CALM,0
H04,2022,10,14,2,0.001,0.015,0.003,0.3,0.004,0.011,10,16.7,84.4,CALM,0
H04,2022,10,14,3,0.002,0.014,0.004,0.3,0.007,0.011,11,16.8,82.5,CALM,0
H04,2022,10,14,4,0.001,0.01,0.003,0.2,0.005,0.01,8,16.1,83.4,CALM,0
H04,2022,10,14,5,0.001,0.009,0.003,0.2,0.005,0.009,7,15.6,85.2,CALM,0
H04,2022,10,14,6,0.001,0.01,0.002,0.2,0.011,0.009,7,16.4,83,CALM,0
H04,2022,10,14,7,0.001,0.01,0.003,0.3,0.013,0.009,4,16.7,79.5,CALM,0
H04,2022,10,14,8,0.001,0.01,0.006,0.3,0.012,0.009,5,18.8,71.1,CALM,0
H04,2022,10,14,9,0.001,0.009,0.011,0.2,0.009,0.01,6,20.9,64.9,CALM,0.1
H04,2022,10,14,10,0.001,0.009,0.021,0.2,0.004,0.008,7,22.7,57.2,SSE,0.3
H04,2022,10,14,11,0.001,0.007,0.031,0.2,0.002,0.006,8,24.8,46.8,SSE,0.3
H04,2022,10,14,12,0.001,0.013,0.037,0.2,0.002,0.007,4,28.1,35,S,0.4
H04,2022,10,14,13,0.001,0.006,0.045,0.2,0.002,0.006,3,28.3,36.5,SE,0.4
H04,2022,10,14,14,0.001,0.004,0.049,0.2,0.001,0.004,3,29.1,37.8,SSE,0.5
H04,2022,10,14,15,0.001,0.005,0.051,0.2,0.001,0.004,4,28.8,39.3,SE,0.8
H04,2022,10,14,16,0.001,0.006,0.049,0.2,0.001,0.003,4,27.8,42.9,ESE,0.5
H04,2022,10,14,17,0.001,0.012,0.051,0.2,0,0.005,9,26.6,49.8,E,0.6
H04,2022,10,14,18,0.001,0.016,0.052,0.2,0.001,0.017,12,25.3,55.2,CALM,0.1
H04,2022,10,14,19,0.001,0.015,0.048,0.2,0,0.018,8,24.2,61.1,SE,0.3
H04,2022,10,14,20,0.001,0.017,0.035,0.3,0.001,0.023,11,23.8,65.3,CALM,0.2
H04,2022,10,14,21,0.002,0.016,0.038,0.3,0,0.02,11,22.7,65.6,CALM,0.2
H04,2022,10,14,22,0.001,0.013,0.031,0.3,0.001,0.019,11,22.2,68.1,CALM,0
H04,2022,10,14,23,0.001,0.015,0.019,0.3,0.001,0.018,9,21,70,CALM,0
H04,2022,10,14,24,0.001,0.011,0.022,0.2,0,0.012,10,20.4,72.7,CALM,0.1
H04,2022,10,15,1,0.001,0.011,0.018,0.2,0,0.013,8,19.8,76.3,CALM,0.1
H04,2022,10,15,2,0.001,0.015,0.01,0.3,0.001,0.017,10,19.4,79.9,CALM,0.2
H04,2022,10,15,3,0.001,0.014,0.006,0.2,0.001,0.017,8,19.1,80.9,CALM,0.1
H04,2022,10,15,4,0.001,0.014,0.006,0.2,0.001,0.016,9,18.9,80.9,CALM,0
H04,2022,10,15,5,0.001,0.014,0.005,0.2,0.002,0.015,11,18.5,82.7,CALM,0
H04,2022,10,15,6,0.001,0.014,0.006,0.2,0.001,0.014,11,18.3,83,CALM,0
H04,2022,10,15,7,0.001,0.015,0.006,0.3,0.005,0.014,10,18.6,82,CALM,0
H04,2022,10,15,8,0.002,0.017,0.008,0.3,0.013,0.014,12,20.4,75.8,CALM,0
H04,2022,10,15,9,0.002,0.015,0.016,0.2,0.006,0.01,11,22.7,66.4,CALM,0.1
H04,2022,10,15,10,0.002,0.013,0.03,0.2,0.002,0.007,8,24.5,59.5,CALM,0.2
H04,2022,10,15,11,0.001,0.013,0.04,0.2,0.001,0.005,10,26.6,50.9,CALM,0.2
H04,2022,10,15,12,0.001,0.009,0.045,0.2,0.001,0.003,1,29.1,40.3,SSE,0.6
H04,2022,10,15,13,0.001,0.006,0.048,0.2,0,0.002,3,29.1,40.1,S,0.3
H04,2022,10,15,14,0.001,0.007,0.046,0.1,0,0.002,4,29.5,41.9,SSE,0.4
H04,2022,10,15,15,0.001,0.007,0.047,0.2,0,0.002,6,29.7,43.1,SSE,0.3
H04,2022,10,15,16,0.001,0.009,0.046,0.1,0,0.002,6,28.4,45.3,CALM,0.2
H04,2022,10,15,17,0.001,0.01,0.043,0.2,0,0.004,7,26.3,50.9,CALM,0.2
H04,2022,10,15,18,0.001,0.009,0.037,0.2,0,0.006,7,24.5,58.6,SSE,0.4
H04,2022,10,15,19,0.001,0.009,0.035,0.2,0,0.005,8,23.3,66.8,SSE,0.3
H04,2022,10,15,20,0.001,0.01,0.032,0.2,0,0.007,10,23,67.8,CALM,0
H04,2022,10,15,21,0.001,0.013,0.029,0.2,0,0.009,10,22.8,68.7,CALM,0.1
H04,2022,10,15,22,0.001,0.015,0.027,0.2,0,0.009,9,22,71,CALM,0.1
H04,2022,10,15,23,0.001,0.013,0.026,0.2,0,0.008,10,21.5,73,CALM,0.1
H04,2022,10,15,24,0,0.016,0.024,0.2,0,0.009,10,20.9,76.1,CALM,0.1
H04,2022,10,16,1,0,0.017,0.022,0.2,0,0.009,9,20.4,77.8,CALM,0.1
H04,2022,10,16,2,0.001,0.018,0.014,0.2,0,0.011,12,19.7,81.4,SE,0.3
H04,2022,10,16,3,0.001,0.02,0.009,0.2,0.001,0.012,10,19.5,83.4,CALM,0.2
H04,2022,10,16,4,0.001,0.021,0.007,0.3,0.001,0.013,14,19.5,82.6,CALM,0.1
H04,2022,10,16,5,0.001,0.02,0.007,0.2,0.001,0.011,13,18.9,83.8,SE,0.3
H04,2022,10,16,6,0.001,0.015,0.005,0.2,0.001,0.013,10,18.9,83,CALM,0
H04,2022,10,16,7,0.001,0.017,0.008,0.2,0.002,0.009,10,19.7,81.3,CALM,0
H04,2022,10,16,8,0.002,0.022,0.011,0.2,0.005,0.009,12,21.1,76.4,CALM,0.1
H04,2022,10,16,9,0.003,0.018,0.019,0.2,0.011,0.01,11,23.1,66.2,CALM,0.1
H04,2022,10,16,10,0.003,0.016,0.028,0.2,0.003,0.007,13,24.5,62.6,SSE,0.4
H04,2022,10,16,11,0.002,0.02,0.042,0.3,0.001,0.006,12,26.6,54.1,SSE,0.8
H04,2022,10,16,12,0.003,0.02,0.059,0.4,0.001,0.005,9,28.2,44,SSE,0.6
H04,2022,10,16,13,0.003,0.016,0.062,0.4,0,0.004,12,27.7,49.4,SE,0.8
H04,2022,10,16,14,0.002,0.016,0.066,0.3,0,0.004,12,28.1,48.3,ESE,1
H04,2022,10,16,15,0.003,0.022,0.064,0.4,0.001,0.006,15,27.5,52.7,SSE,1
H04,2022,10,16,16,0.002,0.015,0.062,0.3,0,0.004,13,26.1,59.1,SSE,0.9
H04,2022,10,16,17,0.001,0.013,0.057,0.2,0,0.004,10,25.1,63.8,E,0.8
H04,2022,10,16,18,0.001,0.013,0.047,0.2,0.001,0.007,10,24.5,69.1,SE,0.8
H04,2022,10,16,19,0.001,0.009,0.042,0.2,0,0.007,7,24.6,63.4,S,0.8
H04,2022,10,16,20,0.001,0.012,0.034,0.2,0,0.011,9,23.6,73.1,CALM,0.1
H04,2022,10,16,21,0.001,0.015,0.026,0.2,0,0.016,9,23.6,74.2,CALM,0.1
H04,2022,10,16,22,0.001,0.016,0.023,0.3,0,0.016,8,23.4,74.8,CALM,0
H04,2022,10,16,23,0.001,0.015,0.02,0.3,0.001,0.018,9,23,72.7,CALM,0
H04,2022,10,16,24,0.001,0.014,0.021,0.3,0.001,0.013,9,22.8,73.5,CALM,0
H04,2022,10,17,1,0,0.014,0.02,0.3,0.001,0.011,8,22.3,74.9,CALM,0.1
H04,2022,10,17,2,0.001,0.017,0.019,0.3,0,0.011,9,22.4,75.6,CALM,0
H04,2022,10,17,3,0.001,0.019,0.015,0.3,0.001,0.013,10,21.9,78.3,CALM,0.2
H04,2022,10,17,4,0.001,0.017,0.015,0.2,0,0.012,11,21.5,79.5,CALM,0.2
H04,2022,10,17,5,0.001,0.023,0.015,0.2,0,0.012,16,21.3,90.5,CALM,0
H04,2022,10,17,6,0.002,0.025,0.012,0.2,0.001,0.014,15,20.9,91.9,CALM,0
H04,2022,10,17,7,0.002,0.021,0.011,0.3,0.002,0.014,14,20.7,93.2,CALM,0
H04,2022,10,17,8,0.001,0.021,0.008,0.3,0.005,0.016,11,20.7,92.5,CALM,0
H04,2022,10,17,9,0.001,0.019,0.006,0.3,0.011,0.019,11,21.2,91.1,CALM,0
H04,2022,10,17,10,0.001,0.021,0.007,0.3,0.013,0.021,11,20.9,91.7,CALM,0.1
H04,2022,10,17,11,0.001,0.02,0.01,0.4,0.009,0.017,12,20.7,94.5,CALM,0
H04,2022,10,17,12,0.001,0.021,0.011,0.3,0.009,0.016,11,20.8,95.3,CALM,0
H04,2022,10,17,13,0.001,0.015,0.015,0.3,0.005,0.016,10,20.9,95.5,CALM,0
H04,2022,10,17,14,0.001,0.013,0.018,0.3,0.003,0.016,10,20.6,94.9,CALM,0.1
H04,2022,10,17,15,0.001,0.016,0.018,0.3,0.003,0.016,9,20.7,95.1,CALM,0
H04,2022,10,17,16,0.001,0.014,0.014,0.4,0.003,0.021,10,20.7,92.5,CALM,0.1
H04,2022,10,17,17,0.001,0.015,0.019,0.3,0.001,0.016,9,20.1,94.6,CALM,0.1
H04,2022,10,17,18,0.001,0.013,0.026,0.3,0.002,0.014,10,19.7,92.6,CALM,0.1
H04,2022,10,17,19,0.002,0.009,0.029,0.2,0,0.01,7,19.5,91.5,CALM,0.1
H04,2022,10,17,20,0.001,0.01,0.027,0.2,0,0.011,8,19.5,90.2,CALM,0.1
H04,2022,10,17,21,0.001,0.009,0.025,0.2,0,0.011,6,19.5,92.8,CALM,0
H04,2022,10,17,22,0.001,0.012,0.021,0.2,0,0.013,6,19.1,93.5,CALM,0
H04,2022,10,17,23,0.001,0.012,0.018,0.2,0,0.015,6,18.8,90.7,CALM,0
H04,2022,10,17,24,0.001,0.009,0.022,0.2,0,0.011,8,18.8,86.3,CALM,0
H04,2022,10,18,1,***,0.011,0.025,***,***,***,6,18.3,87.9,CALM,0
H04,2022,10,18,2,0.001,0.01,0.021,0.2,0,0.009,5,18.3,83,CALM,0
H04,2022,10,18,3,0.001,0.012,0.024,0.2,0,0.006,6,17.6,82.9,CALM,0
H04,2022,10,18,4,0.001,0.011,0.019,0.2,0,0.008,4,17,85.4,CALM,0